Hourly Weather Roundup
Issued by NWS Central Illinois

Home | Current Version | Previous Version | Text Only | Print | Product List | Glossary On
Versions: 1 2 3 4 5 6 7 8 9 10 11 12 13 14 15 16 17 18 19 20 21 22 23 24 25 26 27 28 29 30 31 32 33 34 35 36 37 38 39 40 41 42 43 44 45 46 47 48 49 50
000
NZUS43 KILX 300810
HWRILX

AREA WEATHER ROUNDUP
NATIONAL WEATHER SERVICE, LINCOLN IL
300 AM CDT SAT AUG 30 2014


CITY           SKY/WX    TMP DP  RH WIND       PRES   REMARKS
BLOOMINGTON    CLOUDY    73  68  84 S12       29.90F
CHAMPAIGN      CLOUDY    73  69  87 S7        29.92S
DECATUR        CLOUDY    76  69  79 S14       29.92R
FLORA          MOCLDY    73  68  83 S7        29.96F
GALESBURG      PTCLDY    69  69 100 S6        29.84S
JACKSONVILLE   MOCLDY    74  71  92 S8        29.89S
LACON          CLOUDY    71  69  90 S6        29.84F
LAWRENCEVILLE  CLOUDY    75  68  78 S9        29.97S
LITCHFIELD     CLOUDY    72  69  90 S10       29.93R
$$


CITY           SKY/WX    TMP DP  RH WIND       PRES   REMARKS
LINCOLN        CLOUDY    74  70  86 S3        29.86S
MACOMB         MOCLDY    71  70  97 S10       29.86F
MATTOON        CLOUDY    74  68  81 S8        29.94S
MT CARMEL AP   CLOUDY    77  70  78 SW7       29.97S
OLNEY-NOBLE AP CLOUDY    73  68  83 CALM      29.97S
PARIS          MOCLDY    72  70  92 S7        29.94F
PEORIA         PTCLDY    72  69  90 S8        29.86F FOG
PONTIAC        CLOUDY    75  72  88 S8        29.87S
RANTOUL        CLOUDY    75  68  77 S6        29.92S
ROBINSON       MOCLDY    75  70  84 S7        29.97R
SPRINGFIELD    CLOUDY    75  70  84 SW9       29.89S
TAYLORVILLE    CLOUDY    72  70  94 S8        29.92R
$$

...REGIONAL REPORTS...


CITY           SKY/WX    TMP DP  RH WIND       PRES   REMARKS
CHICAGO O`HARE CLOUDY    74  67  78 S13       29.83F
KANKAKEE       CLOUDY    73  69  87 S10       29.89R
MOLINE         MOCLDY    71  69  93 SW10      29.83R
MOUNT VERNON   CLOUDY    73  66  78 SW8       29.97S
PITTSFIELD     PTCLDY    73  69  89 S7        29.90R
QUINCY         MOCLDY    72  69  90 SW9       29.88R
ROCKFORD       CLOUDY    71  67  87 S9        29.83S
$$


CITY           SKY/WX    TMP DP  RH WIND       PRES   REMARKS
BURLINGTON     HVY RAIN  72  71  97 SW9       29.84R FOG
CEDAR RAPIDS   CLOUDY    68  68 100 SW8       29.79R
DES MOINES     MOCLDY    68  65  90 W6        29.80S
KIRKSVILLE     CLOUDY    69  66  90 S8        29.86F
OTTUMWA        PTCLDY    65  63  93 S7        29.81S
ST LOUIS       CLOUDY    78  67  68 S8        29.93R HX  80
$$


CITY           SKY/WX    TMP DP  RH WIND       PRES   REMARKS
TERRE HAUTE    MOCLDY    74  67  78 S10       29.96S
EVANSVILLE     PTCLDY    76  66  71 SW7       29.99S
INDIANAPOLIS   MOCLDY    72  63  73 S7        29.97S
LAFAYETTE      MOCLDY    72  67  84 S7        29.92F
MADISON        MOCLDY    72  68  87 S10       29.78S
MILWAUKEE      CLOUDY    74  68  81 S9        29.81F
$$





USA.gov is the U.S. government's official web portal to all federal, state and local government web resources and services.